FW1302 Weather Reports


time (UTC)temp
C
wind
direction
speed
KPH
gust
KPH
rain 1hr
cm
rain 24hr
cm
rain mn
cm
humidity
%
barometer
mb
20260901230424 20 220 12.9 19.3 0.00 0.00 0.00 62 1021.1
20260901223425 20 226 20.9 27.4 0.00 0.00 0.00 64 1021.4
20260901221425 19 222 19.3 27.4 0.00 0.00 0.00 65 1021.4
20260901220425 19 214 27.4 33.8 0.00 0.00 0.00 66 1021.3
20260901214425 19 210 16.1 20.9 0.00 0.00 0.00 65 1021.3
20260901213523 19 223 14.5 19.3 0.00 0.00 0.00 65 1021.4
20260901212524 19 211 19.3 27.4 0.00 0.00 0.00 66 1021.4
20260901211525 18 219 14.5 27.4 0.00 0.00 0.00 65 1021.5
20260901210526 19 229 12.9 16.1 0.00 0.00 0.00 65 1021.5
20260901205625 18 230 14.5 19.3 0.00 0.00 0.00 65 1021.4
20260901204723 18 224 12.9 16.1 0.00 0.00 0.00 66 1021.5
20260901203725 18 215 8.0 12.9 0.00 0.00 0.00 67 1021.7
20260901202725 18 226 12.9 19.3 0.00 0.00 0.00 67 1021.8
20260901201724 18 221 14.5 20.9 0.00 0.00 0.00 67 1021.8
20260901200724 18 221 11.3 16.1 0.00 0.00 0.00 67 1021.8
20260901195726 18 203 9.7 17.7 0.00 0.00 0.00 69 1022.1
20260901194823 18 225 16.1 19.3 0.00 0.00 0.00 67 1022.0
20260901193825 18 224 12.9 17.7 0.00 0.00 0.00 67 1022.2
20260901190923 18 243 12.9 17.7 0.00 0.00 0.00 69 1022.5
20260901185926 18 230 11.3 17.7 0.00 0.00 0.00 69 1022.5
20260901185025 17 231 12.9 22.5 0.00 0.00 0.00 71 1022.5
20260901184026 17 228 11.3 16.1 0.00 0.00 0.00 71 1022.6
20260901183025 17 233 14.5 19.3 0.00 0.00 0.00 70 1022.6
20260901182024 17 239 14.5 19.3 0.00 0.00 0.00 70 1022.5
20260901181026 17 239 14.5 20.9 0.00 0.00 0.00 71 1022.6
20260901175026 17 246 19.3 27.4 0.00 0.00 0.00 72 1022.5
20260901174125 17 227 8.0 14.5 0.00 0.00 0.00 72 1022.8
20260901173127 17 245 17.7 22.5 0.00 0.00 0.00 73 1022.7
20260901172224 17 235 12.9 19.3 0.00 0.00 0.00 74 1022.7
20260901171226 17 252 12.9 16.1 0.00 0.00 0.00 73 1022.7
20260901170226 16 250 14.5 19.3 0.00 0.00 0.00 72 1022.6
20260901165223 16 239 12.9 17.7 0.00 0.00 0.00 72 1022.6
20260901164225 16 229 12.9 19.3 0.00 0.00 0.00 72 1022.4
20260901163323 16 237 11.3 19.3 0.00 0.00 0.00 74 1022.7
20260901162323 16 224 12.9 16.1 0.00 0.00 0.00 73 1022.7
20260901162226 16 237 14.5 19.3 0.00 0.00 0.00 74 1022.7
20260901160226 16 224 9.7 12.9 0.00 0.00 0.00 74 1022.6
20260901155224 16 227 11.3 14.5 0.00 0.00 0.00 75 1022.7
20260901154226 16 230 9.7 11.3 0.00 0.00 0.00 75 1022.7
20260901153224 16 223 11.3 17.7 0.00 0.00 0.00 77 1022.7
20260901152226 16 224 9.7 14.5 0.00 0.00 0.00 77 1022.8
20260901151224 16 218 9.7 12.9 0.00 0.00 0.00 76 1022.7
20260901145324 16 236 14.5 20.9 0.00 0.00 0.00 76 1022.6
20260901144323 16 231 11.3 16.1 0.00 0.00 0.00 75 1022.6
20260901143324 16 230 12.9 17.7 0.00 0.00 0.00 74 1022.5
20260901142324 16 225 9.7 12.9 0.00 0.00 0.00 74 1022.5
20260901141324 16 242 9.7 14.5 0.00 0.00 0.00 74 1022.4
20260901140338 16 240 9.7 12.9 0.00 0.00 0.00 75 1022.4
20260901135424 16 236 11.3 16.1 0.00 0.00 0.00 74 1022.4
20260901134427 16 225 14.5 19.3 0.00 0.00 0.00 74 1022.2
20260901133525 16 246 16.1 20.9 0.00 0.00 0.00 75 1022.1
20260901132625 16 222 12.9 17.7 0.00 0.00 0.00 74 1022.1
20260901131625 16 226 11.3 17.7 0.00 0.00 0.00 74 1022.0
20260901131524 16 233 14.5 20.9 0.00 0.00 0.00 74 1022.0
20260901124625 16 225 14.5 20.9 0.00 0.00 0.00 75 1021.9
20260901122626 16 237 17.7 30.6 0.00 0.00 0.00 74 1021.7
20260901121723 16 246 17.7 24.1 0.00 0.00 0.00 74 1021.7
20260901120724 16 223 17.7 30.6 0.00 0.00 0.00 74 1021.6
20260901115725 17 225 19.3 24.1 0.00 0.00 0.00 73 1021.4
20260901113823 17 227 19.3 25.7 0.00 0.00 0.00 72 1021.4
20260901112825 17 225 17.7 20.9 0.00 0.00 0.00 72 1021.3
20260901111823 17 227 14.5 25.7 0.00 0.00 0.00 72 1021.2
20260901110826 17 225 16.1 22.5 0.00 0.00 0.00 71 1021.2
20260901105925 17 236 20.9 30.6 0.00 0.00 0.00 70 1021.0
20260901104925 17 225 19.3 30.6 0.00 0.00 0.00 70 1021.0
20260901103926 17 228 16.1 22.5 0.00 0.00 0.00 70 1020.9
20260901102927 17 233 12.9 19.3 0.00 0.00 0.00 69 1021.0
20260901101925 18 246 14.5 22.5 0.00 0.00 0.00 68 1020.9
20260901100925 18 228 22.5 29.0 0.00 0.00 0.00 67 1020.7
20260901095923 18 228 19.3 25.7 0.00 0.00 0.00 66 1020.5
20260901093923 19 225 20.9 27.4 0.00 0.00 0.00 64 1020.2
20260901093022 19 226 17.7 22.5 0.00 0.00 0.00 64 1020.3
20260901092024 19 231 16.1 22.5 0.00 0.00 0.00 62 1020.2
20260901091123 20 225 25.7 33.8 0.00 0.00 0.00 62 1020.1
20260901090124 20 227 19.3 22.5 0.00 0.00 0.00 60 1020.0
20260901084123 20 226 17.7 24.1 0.00 0.00 0.00 59 1019.7
20260901084024 20 235 19.3 27.4 0.00 0.00 0.00 59 1019.5
20260901083025 21 228 12.9 19.3 0.00 0.00 0.00 59 1019.8
20260901082026 21 231 14.5 20.9 0.00 0.00 0.00 58 1019.5
20260901081025 21 236 20.9 32.2 0.00 0.00 0.00 58 1019.5
20260901075024 21 227 16.1 20.9 0.00 0.00 0.00 57 1019.4
20260901074027 21 226 19.3 24.1 0.00 0.00 0.00 57 1019.4
20260901073025 21 224 14.5 19.3 0.00 0.00 0.00 58 1019.2
20260901072926 21 223 14.5 17.7 0.00 0.00 0.00 58 1019.2
20260901071925 20 220 9.7 14.5 0.00 0.00 0.00 60 1019.2
20260901071023 18 199 6.4 16.1 0.00 0.00 0.00 67 1019.2
20260901065028 18 157 0.0 1.6 0.00 0.00 0.00 66 1019.0
20260901063128 18 157 0.0 1.6 0.00 0.00 0.00 64 1019.0
20260901062126 18 135 0.0 0.0 0.00 0.00 0.00 64 1019.0
20260901061128 18 135 0.0 0.0 0.00 0.00 0.00 61 1018.7
20260901060127 18 135 0.0 0.0 0.00 0.00 0.00 60 1018.7
20260901055129 18 135 0.0 0.0 0.00 0.00 0.00 58 1018.7
20260901054129 19 135 0.0 0.0 0.00 0.00 0.00 58 1018.6
20260901053127 20 135 0.0 0.0 0.00 0.00 0.00 56 1018.4
20260901052226 20 157 1.6 3.2 0.00 0.00 0.00 56 1018.3
20260901051325 20 157 0.0 0.0 0.00 0.00 0.00 55 1018.4
20260901045328 20 157 0.0 0.0 0.00 0.00 0.00 55 1018.4
20260901045226 20 157 0.0 0.0 0.00 0.00 0.00 56 1018.4
20260901044227 20 157 1.6 3.2 0.00 0.00 0.00 54 1018.4
20260901043229 21 157 0.0 1.6 0.00 0.00 0.00 53 1018.3
20260901042326 21 157 0.0 0.0 0.00 0.00 0.00 50 1018.0
20260901041328 22 157 1.6 1.6 0.00 0.00 0.00 50 1017.9
20260901040328 22 157 0.0 3.2 0.00 0.00 0.00 48 1017.8
20260901035327 22 157 0.0 0.0 0.00 0.00 0.00 47 1017.7
20260901034328 23 180 0.0 0.0 0.00 0.00 0.00 47 1017.6
20260901033327 23 180 0.0 0.0 0.00 0.00 0.00 47 1017.5
20260901032328 24 270 0.0 0.0 0.00 0.00 0.00 46 1017.2
20260901031328 26 225 0.0 0.0 0.00 0.00 0.00 43 1017.2
20260901030328 26 225 6.4 11.3 0.00 0.00 0.00 40 1017.1
20260901024525 26 204 4.8 14.5 0.00 0.00 0.00 39 1016.9
20260901022527 27 223 9.7 16.1 0.00 0.00 0.00 40 1016.6
20260901021529 27 220 11.3 19.3 0.00 0.00 0.00 40 1016.6
20260901020626 27 217 9.7 17.7 0.00 0.00 0.00 40 1016.5
20260901014725 26 225 12.9 16.1 0.00 0.00 0.00 37 1016.4
20260901013727 26 225 8.0 11.3 0.00 0.00 0.00 41 1016.3
20260901012728 26 45 0.0 0.0 0.00 0.00 0.00 41 1016.3
20260901011728 26 45 0.0 0.0 0.00 0.00 0.00 41 1016.3
20260901010826 26 45 0.0 0.0 0.00 0.00 0.00 44 1016.3
20260901005828 25 45 4.8 4.8 0.00 0.00 0.00 45 1016.4
20260901004829 26 45 8.0 11.3 0.00 0.00 0.00 47 1016.4
20260901003927 28 45 11.3 12.9 0.00 0.00 0.00 40 1016.4
20260901002928 29 45 12.9 16.1 0.00 0.00 0.00 27 1016.4
20260901002027 28 44 12.9 19.3 0.00 0.00 0.00 30 1016.4
20260901000027 28 45 14.5 19.3 0.00 0.00 0.00 32 1016.5
20260831235126 26 45 14.5 20.9 0.00 0.00 0.00 40 1016.5
20260831233226 27 46 16.1 24.1 0.00 0.00 0.00 32 1016.6
20260831232228 28 46 17.7 22.5 0.00 0.00 0.00 30 1016.6
20260831231227 28 45 17.7 27.4 0.00 0.00 0.00 31 1016.7